Location: Ford County Road and Bridge Department
(37.7686°N, 99.9762°W)
Time: 03:27:12
(UTC+00:00)

Haruka - Pass Details

Date: 18 January 2020
Orbit: 541 x 21211 km, 31.3° (Epoch: 17 February)

Event Time Altitude Azimuth Distance (km) Brightness Sun altitude
Rises 01:36:07 0° 236° (SW) 2,710 7.0 -21.3°
Reaches altitude 10° 01:38:09 10° 222° (SW) 1,801 5.6 -21.7°
Maximum altitude 01:41:10 29° 158° (SSE) 1,212 3.9 -22.3°
Enters shadow 01:41:29 29° 148° (SSE) 1,260 3.9 -22.4°
